Weather History for Spirit of St Louis, MO

Change the Weather History Date:

Monday, January 14, 2013

  Actual Average Record
Temperature  
Mean Temperature 22 °F -  
Max Temperature 28 °F 36 °F - (-1)
Min Temperature 16 °F 18 °F - (-1)
Degree Days  
Heating Degree Days 43    
Moisture  
Dew Point 11 °F    
Average Humidity 70    
Maximum Humidity 84    
Minimum Humidity 51    
Precipitation  
Precipitation 0.00 in - - ()
Sea Level Pressure  
Sea Level Pressure 30.48 in    
Wind  
Wind Speed 2 mph (NNW)    
Max Wind Speed 7 mph    
Max Gust Speed -    
Visibility 10 miles    
Events      
Averages and records for this station are not official NWS values.
T = Trace of Precipitation, MM = Missing Value Source: NWS Daily Summary

Daily Weather History Graph

Daily Weather History Graph

Search for Another Location

Airport:

Trip Planner

Search our weather history database for the weather conditions in past years. The results will help you decide how hot, cold, wet, or windy it might be!

Date:

Astronomy

Jan. 14, 2013 Rise Set
Actual Time 7:19 AM CST 5:04 PM CST
Civil Twilight 6:50 AM CST 5:33 PM CST
Nautical Twilight 6:17 AM CST 6:06 PM CST
Astronomical Twilight 5:45 AM CST 6:38 PM CST
Moon 8:55 AM CST (1/14) 8:47 PM CST (1/14)
Length of Visible Light 10h 43m
Length of Day
9h 45m
Waxing Crescent, 11% of the Moon is Illuminated
Jan 14
Waxing Crescent
Jan 18
First Quarter
Jan 26
Full
Feb 3
Last Quarter
Feb 10
New

Hourly Weather History & Observations

Time (CST) Temp. Windchill Dew Point Humidity Pressure Visibility Wind Dir Wind Speed Gust Speed Precip Events Conditions
12:54 AM 17.1 °F - 12.0 °F 81% 30.42 in 10.0 mi Calm Calm - N/A   Clear
1:54 AM 17.1 °F 11.7 °F 12.0 °F 81% 30.45 in 10.0 mi WSW 3.5 mph - N/A   Clear
2:54 AM 17.1 °F 10.0 °F 10.9 °F 77% 30.47 in 10.0 mi West 4.6 mph - N/A   Clear
4:54 AM 17.1 °F 11.7 °F 10.0 °F 74% 30.45 in 10.0 mi WNW 3.5 mph - N/A   Clear
5:54 AM 16.0 °F - 10.0 °F 77% 30.46 in 10.0 mi Calm Calm - N/A   Clear
6:54 AM 16.0 °F - 10.0 °F 77% 30.46 in 10.0 mi Calm Calm - N/A   Clear
7:54 AM 17.1 °F - 10.9 °F 77% 30.48 in 10.0 mi Calm Calm - N/A   Clear
8:54 AM 19.9 °F 13.4 °F 12.0 °F 71% 30.52 in 10.0 mi North 4.6 mph - N/A   Scattered Clouds
9:54 AM 21.9 °F 14.5 °F 10.9 °F 63% 30.53 in 10.0 mi North 5.8 mph - N/A   Overcast
10:54 AM 21.9 °F 13.4 °F 8.1 °F 55% 30.53 in 10.0 mi North 6.9 mph - N/A   Mostly Cloudy
11:54 AM 23.0 °F - 9.0 °F 55% 30.52 in 10.0 mi Calm Calm - N/A   Partly Cloudy
12:54 PM 24.1 °F - 10.0 °F 55% 30.51 in 10.0 mi Calm Calm - N/A   Mostly Cloudy
1:54 PM 25.0 °F - 12.0 °F 58% 30.49 in 10.0 mi Calm Calm - N/A   Mostly Cloudy
2:54 PM 27.0 °F - 12.0 °F 53% 30.48 in 10.0 mi Calm Calm - N/A   Partly Cloudy
3:54 PM 28.0 °F - 12.0 °F 51% 30.48 in 10.0 mi Calm Calm - N/A   Clear
4:54 PM 25.0 °F 19.3 °F 12.0 °F 58% 30.48 in 10.0 mi North 4.6 mph - N/A   Clear
5:54 PM 23.0 °F 17.0 °F 12.0 °F 63% 30.47 in 10.0 mi NNE 4.6 mph - N/A   Clear
6:54 PM 19.9 °F - 12.9 °F 74% 30.46 in 10.0 mi Calm Calm - N/A   Clear
7:54 PM 19.0 °F - 14.0 °F 81% 30.45 in 10.0 mi Calm Calm - N/A   Clear
8:54 PM 18.0 °F - 14.0 °F 84% 30.45 in 10.0 mi Calm Calm - N/A   Clear
9:54 PM 18.0 °F - 12.9 °F 81% 30.45 in 10.0 mi Calm Calm - N/A   Clear
10:54 PM 16.0 °F - 12.0 °F 84% 30.46 in 10.0 mi Calm Calm - N/A   Clear
11:54 PM 16.0 °F - 10.9 °F 81% 30.47 in 10.0 mi Calm Calm - N/A   Clear